| time (UTC) | temp F | wind direction | speed knots | gust knots | rain 1hr in | rain 24hr in | rain mn in | humidity % | barometer mb |
| 20260503050054 | 57 | 161 | 0.0 | 1.7 | 0.00 | 0.83 | 0.00 | 94 | 1016.5 |
| 20260503044554 | 57 | 0 | 0.0 | 1.7 | 0.00 | 0.85 | 0.00 | 94 | 1016.4 |
| 20260503043054 | 57 | 0 | 0.9 | 4.3 | 0.00 | 0.85 | 0.00 | 94 | 1016.4 |
| 20260503041552 | 57 | 165 | 1.7 | 4.3 | 0.00 | 0.85 | 0.00 | 94 | 1016.6 |
| 20260503034603 | 57 | 0 | 0.0 | 0.9 | 0.00 | 0.85 | 0.00 | 94 | 1017.2 |
| 20260503033057 | 57 | 0 | 0.0 | 2.6 | 0.00 | 0.85 | 0.00 | 94 | 1017.0 |
| 20260503031555 | 57 | 175 | 0.0 | 3.5 | 0.00 | 0.85 | 0.00 | 94 | 1017.1 |
| 20260503030054 | 57 | 0 | 0.0 | 3.5 | 0.00 | 0.85 | 0.00 | 94 | 1017.1 |
| 20260503024554 | 57 | 0 | 0.9 | 3.5 | 0.00 | 0.85 | 0.00 | 94 | 1017.2 |
| 20260503023051 | 58 | 0 | 0.0 | 1.7 | 0.00 | 0.85 | 0.00 | 94 | 1017.2 |
| 20260503021552 | 58 | 0 | 0.0 | 0.0 | 0.00 | 0.85 | 0.00 | 94 | 1017.4 |
| 20260503020049 | 58 | 0 | 0.0 | 1.7 | 0.00 | 0.85 | 0.00 | 94 | 1017.8 |
| 20260503014603 | 58 | 0 | 0.0 | 2.6 | 0.00 | 0.85 | 0.00 | 94 | 1017.9 |
| 20260503013050 | 57 | 106 | 0.0 | 3.5 | 0.00 | 0.85 | 0.00 | 94 | 1018.3 |
| 20260503011559 | 57 | 190 | 0.0 | 2.6 | 0.00 | 0.85 | 0.00 | 94 | 1018.5 |
| 20260503010052 | 57 | 0 | 0.0 | 3.5 | 0.00 | 0.85 | 0.00 | 94 | 1018.3 |
| 20260503004551 | 57 | 157 | 1.7 | 6.1 | 0.00 | 0.85 | 0.00 | 94 | 1018.2 |
| 20260503003108 | 57 | 175 | 0.0 | 4.3 | 0.00 | 0.85 | 0.00 | 93 | 1018.1 |
| 20260503001609 | 57 | 179 | 1.7 | 7.0 | 0.00 | 0.85 | 0.00 | 93 | 1018.4 |
| 20260503000053 | 58 | 138 | 0.9 | 4.3 | 0.00 | 0.85 | 0.00 | 94 | 1018.4 |
| 20260502234552 | 57 | 151 | 0.0 | 6.1 | 0.00 | 0.85 | 0.00 | 93 | 1018.6 |
| 20260502233051 | 58 | 174 | 1.7 | 5.2 | 0.00 | 0.85 | 0.00 | 93 | 1018.5 |
| 20260502231555 | 58 | 212 | 0.9 | 5.2 | 0.00 | 0.85 | 0.00 | 93 | 1018.6 |
| 20260502230050 | 58 | 150 | 0.9 | 3.5 | 0.00 | 0.85 | 0.00 | 93 | 1018.6 |
| 20260502224554 | 58 | 155 | 0.9 | 4.3 | 0.00 | 0.85 | 0.00 | 93 | 1018.7 |
| 20260502221552 | 58 | 0 | 0.0 | 4.3 | 0.01 | 0.85 | 0.00 | 93 | 1018.6 |
| 20260502220054 | 58 | 0 | 0.0 | 2.6 | 0.01 | 0.85 | 0.00 | 93 | 1018.6 |
| 20260502214558 | 58 | 0 | 0.0 | 0.9 | 0.01 | 0.85 | 0.85 | 93 | 1018.9 |
| 20260502213100 | 57 | 0 | 0.0 | 2.6 | 0.03 | 0.82 | 0.82 | 93 | 1019.2 |
| 20260502210104 | 58 | 0 | 0.0 | 2.6 | 0.02 | 0.70 | 0.70 | 92 | 1019.3 |
| 20260502204555 | 58 | 97 | 0.0 | 1.7 | 0.03 | 0.68 | 0.68 | 92 | 1019.1 |
| 20260502203049 | 57 | 0 | 0.0 | 0.0 | 0.16 | 0.68 | 0.68 | 91 | 1019.2 |
| 20260502201601 | 57 | 74 | 0.9 | 1.7 | 0.62 | 0.68 | 0.68 | 91 | 1019.1 |
| 20260502200050 | 57 | 0 | 0.0 | 3.5 | 0.63 | 0.67 | 0.67 | 90 | 1019.5 |
| 20260502194548 | 57 | 0 | 0.0 | 2.6 | 0.60 | 0.64 | 0.64 | 89 | 1020.0 |
| 20260502193052 | 58 | 0 | 1.7 | 22.6 | 0.47 | 0.51 | 0.51 | 85 | 1020.5 |
| 20260502191550 | 66 | 304 | 3.5 | 9.6 | 0.00 | 0.04 | 0.04 | 78 | 1019.4 |
| 20260502190049 | 69 | 329 | 0.9 | 3.5 | 0.00 | 0.03 | 0.03 | 72 | 1018.9 |
| 20260502184604 | 71 | 308 | 0.0 | 1.7 | 0.00 | 0.03 | 0.03 | 67 | 1019.1 |
| 20260502183102 | 73 | 0 | 0.0 | 0.0 | 0.00 | 0.03 | 0.03 | 61 | 1019.0 |
| 20260502181605 | 73 | 0 | 0.0 | 0.9 | 0.00 | 0.03 | 0.03 | 60 | 1018.7 |
| 20260502163058 | 77 | 164 | 1.7 | 4.3 | 0.00 | 0.03 | 0.03 | 53 | 1019.2 |
| 20260502161557 | 77 | 173 | 0.9 | 5.2 | 0.00 | 0.03 | 0.03 | 53 | 1019.6 |
| 20260502151604 | 78 | 327 | 0.0 | 3.5 | 0.00 | 0.03 | 0.03 | 53 | 1020.2 |
| 20260502150105 | 76 | 225 | 2.6 | 7.0 | 0.00 | 0.03 | 0.03 | 53 | 1020.7 |
| 20260502123101 | 73 | 0 | 0.9 | 5.2 | 0.00 | 0.03 | 0.03 | 62 | 1022.7 |
| 20260502121552 | 72 | 231 | 2.6 | 6.1 | 0.00 | 0.03 | 0.03 | 65 | 1023.0 |
| 20260502114553 | 71 | 173 | 2.6 | 6.1 | 0.00 | 0.03 | 0.03 | 67 | 1023.1 |
| 20260502113052 | 71 | 198 | 0.9 | 2.6 | 0.00 | 0.03 | 0.03 | 69 | 1023.4 |
| 20260502111556 | 70 | 226 | 2.6 | 6.1 | 0.00 | 0.03 | 0.03 | 69 | 1023.5 |
| 20260502110100 | 71 | 159 | 2.6 | 8.7 | 0.00 | 0.03 | 0.03 | 70 | 1023.5 |
| 20260502104559 | 71 | 231 | 2.6 | 7.0 | 0.00 | 0.03 | 0.03 | 68 | 1023.6 |
| 20260502103101 | 69 | 213 | 1.7 | 5.2 | 0.00 | 0.03 | 0.03 | 73 | 1023.6 |
| 20260502101634 | 69 | 237 | 2.6 | 6.1 | 0.00 | 0.03 | 0.03 | 72 | 1023.7 |
| 20260502100121 | 68 | 208 | 2.6 | 7.0 | 0.00 | 0.03 | 0.03 | 73 | 1023.8 |
| 20260502080108 | 61 | 221 | 0.9 | 4.3 | 0.00 | 0.03 | 0.03 | 86 | 1023.8 |
| 20260502070057 | 58 | 0 | 0.0 | 2.6 | 0.00 | 0.03 | 0.03 | 86 | 1023.7 |
| 20260502064558 | 58 | 0 | 1.7 | 3.5 | 0.00 | 0.03 | 0.03 | 88 | 1023.7 |
| 20260502063055 | 56 | 137 | 0.9 | 3.5 | 0.00 | 0.03 | 0.03 | 89 | 1023.5 |
| 20260502061554 | 55 | 180 | 0.9 | 4.3 | 0.00 | 0.03 | 0.03 | 90 | 1023.5 |
| 20260502060100 | 54 | 166 | 0.0 | 1.7 | 0.00 | 0.03 | 0.03 | 90 | 1023.4 |
| 20260502054604 | 54 | 205 | 0.9 | 2.6 | 0.00 | 0.03 | 0.03 | 89 | 1023.5 |
| 20260502053113 | 54 | 0 | 0.0 | 0.9 | 0.00 | 0.03 | 0.03 | 89 | 1023.0 |
| 20260502051551 | 54 | 0 | 0.0 | 0.9 | 0.00 | 0.03 | 0.03 | 88 | 1022.8 |